Location: Tafessasset
(32.5899°N, 5.4824°W)
Time: 10:22:01
(UTC+00:00)

Cosmos 1802 Rocket - Pass Details

Date: 18 February 2020
Orbit: 955 x 1011 km, 82.9° (Epoch: 28 March)

Event Time Altitude Azimuth Distance (km) Brightness Sun altitude
Rises 05:56:44 0° 355° (N) 3,748 7.0 -14.5°
Reaches altitude 10° 05:59:17 10° 357° (N) 2,795 6.3 -14.0°
Maximum altitude 06:05:44 78° 84° (E) 1,034 4.3 -12.6°
Drops below altitude 10° 06:12:07 10° 171° (S) 2,767 6.6 -11.3°
Sets 06:14:37 0° 172° (S) 3,707 7.2 -10.8°
